ANIK G1

Last updated on Sun Jun 21 2026 00:03:05 GMT+0000 (Coordinated Universal Time)

1 39127U 13014A 26171.36017014 -.00000078 00000+0 00000+0 0 9994 2 39127 0.0389 271.9613 0001634 172.0946 206.8551 1.00271735 48281
UTC large
Height (km)
Speed (km/s)
/
Latitude / Longitude
Inclination (degrees)
Orbital Period (minutes)
Azimuth
Elevation
Range (km)
Doppler Factor

Next 0 passes for location: London (51.5072 / 0.1276)

No passes found over London.
ANIK G1